Wind_Speed
3 3 4 4 4 5 4 4 4 3 3 3 3 3 2 2 2 2 2 3 3 3 3 2 2 2 3 3 3 2 2 3 3 3 4 4 4 5 5 6 5 6 6 6 6 5 6 7 8
4 4 5 5 5 5 5 5 5 5 4 4 4 3 3 2 2 2 3 3 3 3 4 3 3 3 3 3 3 3 3 3 3 3 3 4 5 5 5 6 6 6 7 6 6 6 6 7 8
5 5 5 5 5 5 5 5 6 5 5 4 4 3 3 3 3 3 3 3 4 4 4 4 4 3 3 3 3 3 3 3 4 4 4 4 5 6 6 6 7 7 7 7 7 7 7 7 7
6 6 6 5 5 5 5 6 6 5 5 5 4 4 4 4 4 4 4 4 4 4 4 4 3 3 3 4 4 4 4 4 4 4 5 5 5 5 6 6 7 8 8 8 8 8 8 9 9
6 5 5 4 4 4 5 5 5 5 4 5 5 5 5 4 5 5 5 5 4 5 5 4 4 4 4 4 5 5 5 5 5 5 5 5 6 6 6 7 8 8 9 9 9 9 10 10 10
6 5 5 4 4 4 5 5 5 5 5 5 5 5 5 5 5 6 5 5 5 5 5 5 5 5 6 6 6 6 6 6 6 6 6 6 6 7 7 8 8 9 9 10 10 10 10 10 11
6 5 4 4 4 5 5 5 4 4 4 4 5 5 5 5 5 5 5 5 6 6 6 6 6 6 6 6 6 7 6 6 7 7 7 7 7 7 8 8 9 9 10 10 10 11 11 12 12
5 5 4 4 4 4 5 5 4 4 4 4 4 5 5 4 4 5 5 5 6 6 6 6 6 6 6 7 7 7 7 7 6 7 7 8 8 8 8 9 9 9 10 10 10 11 11 12 12
5 5 5 4 4 4 5 5 5 5 4 4 4 4 4 4 4 4 4 5 5 6 6 6 7 7 7 7 7 7 7 7 6 7 7 7 8 8 9 10 10 10 10 10 11 11 12 12 13
5 5 5 5 4 4 5 5 5 5 5 4 4 4 4 4 4 4 5 5 6 6 6 6 7 7 8 7 7 7 8 7 7 7 8 8 8 9 10 10 11 11 10 10 11 12 12 13 13
6 6 5 5 5 5 4 5 4 5 4 4 4 4 4 4 5 5 5 6 6 6 6 6 7 7 8 8 8 7 8 8 8 8 9 9 9 9 10 10 11 11 11 11 11 12 13 13 14
6 6 6 5 5 5 5 4 4 4 4 4 3 4 4 4 4 4 5 5 5 6 6 6 6 7 8 8 8 8 8 9 10 10 10 10 11 11 11 11 11 11 11 11 12 12 13 14 15
8 7 6 6 5 5 5 5 5 5 4 4 4 4 4 4 4 4 4 5 6 6 6 7 7 7 8 8 8 8 8 9 10 10 11 11 12 12 12 12 13 12 12 12 12 13 14 14 15
7 7 7 7 6 6 6 6 6 5 5 5 5 5 4 4 4 4 5 6 6 7 6 7 8 8 8 8 8 8 9 10 10 11 11 12 12 12 13 13 13 13 13 13 13 14 14 15 15
7 7 7 8 8 8 8 7 7 6 5 5 5 5 5 5 5 5 6 7 7 7 7 8 8 9 8 9 9 9 10 10 10 11 12 12 12 12 13 13 13 13 13 14 14 14 14 15 15
8 8 8 8 9 8 8 8 8 6 6 6 6 6 6 6 7 7 7 8 8 8 8 8 9 9 9 10 10 10 11 11 11 12 12 12 13 13 13 13 13 14 14 14 14 15 15 15 15
9 9 9 9 9 8 8 8 8 8 7 7 7 7 7 7 7 8 8 8 8 8 9 9 9 9 10 10 10 10 11 12 12 12 12 13 14 14 14 14 15 15 15 15 16 16 15 15 16
9 9 10 10 9 9 9 9 9 9 9 9 8 8 8 8 8 8 8 8 9 9 9 9 10 10 11 10 10 10 11 11 12 12 13 14 14 15 15 16 16 16 17 17 17 17 17 17 17
10 9 9 10 11 11 10 10 10 10 10 10 9 9 9 9 9 9 9 9 9 9 9 10 10 10 11 11 10 10 11 11 12 12 13 14 15 15 15 16 17 17 18 18 18 18 18 18 18
11 10 10 11 11 11 11 11 11 10 10 10 10 10 10 10 9 9 9 9 9 9 9 10 10 10 10 10 10 11 11 12 12 13 13 14 15 15 15 16 17 17 18 18 18 18 19 19 19
11 11 11 11 12 12 12 11 12 11 10 10 11 11 11 10 10 10 10 10 10 10 10 10 10 10 10 10 11 11 11 12 12 13 13 14 14 15 15 16 16 17 17 18 18 18 18 18 19
11 11 12 12 12 12 12 11 11 11 11 11 12 12 11 11 11 11 11 11 10 10 10 10 10 10 10 11 11 11 12 12 12 12 13 14 14 15 15 15 16 17 17 17 17 17 18 18 18
11 12 12 12 13 12 12 12 10 11 12 12 12 13 12 13 13 13 12 12 11 11 11 11 10 10 11 11 12 12 12 12 12 12 13 14 14 15 15 15 16 16 16 17 17 17 17 18 18
12 13 13 12 12 12 11 12 10 11 12 13 13 13 13 13 13 13 13 12 12 12 12 12 11 11 12 11 11 11 11 12 13 14 14 14 15 15 15 15 15 15 15 16 16 17 17 18 19
13 13 14 14 12 12 12 12 11 11 11 12 13 13 13 14 13 13 13 12 12 12 12 13 13 13 13 12 12 12 12 13 14 14 15 15 15 15 15 16 15 15 15 15 16 17 18 18 19
13 14 15 15 13 12 13 13 11 12 12 12 13 14 14 14 14 13 13 13 12 12 13 13 14 14 14 13 13 13 13 14 14 15 15 15 15 15 16 16 16 16 15 15 15 17 17 18 19
14 15 15 16 15 13 13 12 11 13 13 13 14 14 14 14 14 14 14 13 13 14 14 14 15 15 15 14 14 14 15 15 16 16 17 16 16 16 16 17 17 16 16 17 17 17 17 18 19
16 16 17 17 17 16 13 12 12 13 13 13 14 14 14 14 15 15 14 14 15 15 15 15 16 15 16 16 16 16 17 17 18 18 18 18 17 17 18 18 18 17 17 18 18 19 19 19 20
17 18 18 18 19 18 15 12 13 13 14 14 15 15 16 16 16 16 16 16 16 16 16 17 17 16 16 16 17 18 19 19 19 20 20 19 18 18 18 18 18 18 19 20 20 20 20 20 20
19 18 19 20 20 19 18 15 14 14 15 15 15 16 16 17 17 17 17 17 17 17 18 18 18 17 17 17 18 19 19 20 21 21 21 21 20 19 19 19 19 19 20 20 20 21 21 21 21
Wind_Direction
294 290 285 279 272 270 273 267 259 252 244 237 230 224 220 207 199 202 218 225 223 223 227 240 250 262 269 270 262 251 250 251 253 253 252 251 251 253 253 254 255 254 257 261 265 264 257 254 249
287 281 278 277 278 279 278 264 256 255 247 246 241 230 230 221 219 210 222 229 233 239 236 236 239 253 264 272 266 258 252 251 256 253 258 257 256 259 257 256 253 256 261 263 261 260 259 258 255
283 278 273 275 274 270 271 263 256 251 243 243 244 243 238 236 230 224 232 244 241 249 246 240 235 240 248 262 274 269 265 253 250 252 261 261 262 263 264 259 255 257 261 264 261 259 259 257 259
279 276 273 272 271 264 261 259 254 245 238 240 244 246 241 244 241 240 239 241 247 251 252 248 243 242 247 254 266 272 274 269 264 261 262 261 268 270 267 266 264 259 258 259 260 259 259 258 257
284 279 277 269 266 259 255 253 253 249 247 246 247 244 241 243 247 250 248 246 251 253 255 255 258 259 258 262 266 268 270 277 277 270 265 263 267 268 269 269 266 264 261 258 255 257 258 260 259
284 278 274 269 260 253 251 256 258 257 257 258 255 247 243 245 249 253 253 251 253 257 263 262 262 263 265 264 264 262 263 266 268 268 265 263 269 268 267 268 267 265 264 262 259 258 257 258 257
280 281 277 269 261 255 252 258 257 256 256 261 260 256 250 251 253 257 258 259 258 259 262 266 265 266 267 267 268 263 264 266 266 265 264 265 267 269 267 268 269 268 266 264 261 259 258 259 258
282 284 276 268 260 256 264 265 263 259 258 262 261 259 255 254 256 262 265 265 263 263 265 266 269 270 272 270 267 263 262 265 267 266 264 266 267 268 268 268 270 270 270 267 263 261 260 260 259
280 281 275 266 257 262 268 267 265 265 264 261 258 260 262 258 262 264 264 265 266 268 272 272 272 271 275 275 268 265 260 261 266 266 268 273 273 271 269 269 270 270 270 268 265 263 261 261 261
277 275 267 256 254 265 269 266 264 261 259 259 257 258 258 256 262 263 261 265 270 273 274 273 273 274 275 276 274 270 264 262 267 272 275 276 273 271 269 269 269 270 268 266 264 264 262 260 260
272 265 261 254 257 261 262 262 258 254 252 251 253 251 253 259 261 263 266 266 270 274 276 273 274 275 276 277 278 276 271 268 272 277 276 276 275 273 274 274 271 269 266 263 264 266 264 262 262
265 263 260 258 258 253 252 252 253 252 253 255 255 260 260 261 262 264 266 268 274 278 278 274 274 277 276 275 275 275 273 273 275 278 279 276 275 274 275 274 273 271 268 266 265 267 266 264 263
259 259 257 257 256 250 245 247 248 251 252 251 251 258 260 264 269 270 275 276 275 282 281 276 274 277 275 275 275 273 272 272 275 276 280 280 277 275 275 274 273 271 270 269 269 268 268 265 263
263 264 259 258 256 250 251 247 247 249 250 251 253 258 258 262 271 278 283 285 283 284 284 277 276 278 280 279 276 274 272 272 274 276 278 279 279 279 277 275 272 271 270 270 270 269 266 264 261
258 263 265 260 257 252 252 245 243 244 247 251 257 259 259 262 272 281 285 286 284 283 283 284 281 282 283 280 276 273 273 275 275 276 278 278 278 281 281 279 274 271 270 270 270 271 267 265 263
255 257 259 261 262 258 254 251 246 244 247 252 257 264 266 271 277 283 286 287 287 286 284 284 286 287 286 284 281 277 276 279 280 280 280 279 279 282 282 281 277 271 268 268 269 269 268 267 265
258 259 261 262 261 256 253 254 255 250 251 254 255 262 270 277 280 284 286 284 284 285 285 286 287 286 288 286 282 282 281 281 283 284 283 281 280 281 281 280 277 272 270 269 268 268 268 268 267
262 263 262 261 258 255 253 255 258 255 257 254 256 262 268 276 280 282 284 283 284 287 288 291 290 286 287 286 281 281 282 284 285 286 287 285 282 280 279 278 276 274 272 272 270 270 269 267 266
263 263 263 259 260 258 259 259 258 257 259 258 259 261 264 270 275 279 282 285 286 288 290 292 292 293 292 287 284 282 283 284 286 287 289 288 285 283 282 280 276 273 271 270 270 270 270 268 266
263 261 264 264 264 262 260 259 257 255 256 260 259 261 263 267 273 279 283 287 288 288 288 289 290 292 293 289 285 283 283 285 286 287 290 290 289 287 284 283 279 275 272 270 269 269 269 267 265
265 266 266 268 269 268 264 260 258 260 258 255 254 258 263 269 275 281 284 287 288 288 287 287 287 291 293 292 289 285 286 289 288 289 292 292 292 289 287 286 282 278 273 271 270 268 267 266 265
266 267 266 269 269 269 270 264 257 259 262 260 257 258 263 269 275 279 281 284 287 287 285 284 286 290 293 293 291 288 288 290 292 291 290 292 294 293 291 290 287 281 276 272 270 268 268 267 265
267 264 266 268 269 271 273 273 262 262 262 264 262 260 264 269 272 275 277 277 281 284 284 283 285 288 291 295 294 291 291 292 292 291 291 292 294 294 293 292 289 285 279 275 270 267 269 269 267
263 263 267 270 268 269 274 276 271 268 264 264 265 266 267 270 273 274 273 274 276 278 280 283 284 286 290 291 293 292 293 293 293 294 294 294 295 295 294 294 292 288 283 277 271 267 268 268 266
262 265 267 269 268 269 273 275 274 271 267 265 268 270 270 270 270 272 275 274 274 276 278 281 284 288 290 291 292 291 292 292 294 295 296 296 297 296 295 295 294 291 285 280 274 271 271 269 267
262 265 268 273 273 271 272 275 273 273 268 265 267 269 269 270 269 271 273 276 278 278 278 280 284 287 289 290 291 291 291 292 293 296 295 294 296 296 296 295 293 290 285 280 278 278 274 272 270
260 263 268 272 272 273 274 276 271 270 268 265 267 270 272 273 273 271 274 277 280 280 278 280 282 285 288 290 289 289 291 291 293 293 294 295 297 297 296 293 292 290 286 282 281 278 276 275 272
261 264 266 270 273 276 278 279 274 271 269 268 268 270 274 275 274 273 274 276 279 280 281 283 283 285 286 288 288 288 289 290 292 294 295 296 296 297 295 292 288 287 285 281 281 278 276 276 275
263 263 267 269 272 277 281 279 276 273 271 271 272 273 275 276 276 274 274 277 279 280 282 284 284 285 287 287 287 287 288 288 289 292 293 293 293 294 293 291 287 285 283 280 279 279 278 277 276
264 264 267 270 274 276 278 277 276 273 272 272 273 275 276 276 276 273 273 276 278 279 281 283 284 285 286 288 287 288 288 289 289 290 291 292 291 291 291 290 289 287 285 282 280 279 279 278 277
Height
5850 5850 5850 5851 5852 5852 5851 5852 5851 5852 5852 5852 5853 5853 5853 5854 5855 5858 5856 5855 5855 5856 5856 5856 5857 5857 5857 5857 5857 5858 5858 5859 5859 5859 5860 5861 5861 5861 5862 5862 5863 5863 5864 5865 5865 5865 5866 5866 5867
5849 5849 5851 5851 5850 5850 5851 5850 5851 5851 5852 5852 5852 5852 5853 5853 5853 5854 5854 5854 5855 5855 5855 5856 5856 5856 5856 5856 5857 5857 5857 5858 5858 5859 5859 5860 5860 5861 5861 5861 5862 5862 5863 5864 5865 5865 5865 5866 5866
5849 5849 5850 5850 5849 5850 5850 5850 5850 5850 5851 5851 5852 5852 5852 5852 5853 5853 5853 5854 5854 5854 5855 5855 5855 5855 5856 5856 5856 5856 5857 5857 5857 5858 5858 5858 5859 5859 5860 5860 5861 5861 5862 5863 5863 5864 5864 5864 5865
5848 5849 5850 5850 5849 5849 5849 5849 5849 5849 5850 5850 5851 5851 5851 5852 5852 5853 5853 5853 5853 5854 5854 5854 5854 5855 5855 5855 5855 5855 5856 5856 5856 5856 5857 5857 5857 5858 5858 5859 5859 5860 5860 5861 5861 5862 5862 5863 5863
5848 5848 5848 5848 5848 5848 5848 5848 5848 5849 5849 5849 5850 5850 5850 5851 5851 5851 5852 5852 5852 5853 5853 5853 5854 5854 5854 5854 5854 5855 5855 5855 5855 5855 5856 5856 5856 5857 5857 5857 5858 5858 5859 5859 5860 5860 5861 5861 5861
5847 5847 5848 5847 5847 5847 5847 5847 5848 5848 5848 5848 5849 5849 5849 5850 5850 5850 5851 5851 5851 5852 5852 5852 5852 5853 5853 5853 5853 5853 5854 5854 5854 5854 5854 5854 5855 5855 5855 5856 5856 5856 5857 5857 5858 5858 5859 5859 5859
5847 5846 5846 5847 5847 5847 5847 5847 5847 5847 5847 5848 5848 5848 5848 5848 5849 5849 5849 5850 5850 5850 5850 5851 5851 5851 5851 5851 5852 5852 5852 5852 5852 5852 5852 5852 5853 5853 5853 5854 5854 5854 5854 5855 5856 5856 5856 5857 5857
5845 5846 5845 5845 5846 5846 5846 5846 5846 5846 5847 5847 5847 5847 5847 5847 5848 5848 5848 5848 5849 5849 5849 5849 5849 5850 5850 5850 5850 5850 5850 5850 5851 5851 5851 5851 5851 5851 5851 5851 5851 5852 5852 5852 5853 5853 5854 5854 5855
5844 5845 5844 5845 5845 5845 5845 5845 5845 5845 5845 5846 5846 5846 5846 5846 5846 5847 5847 5847 5847 5848 5848 5848 5848 5848 5848 5848 5848 5848 5848 5849 5849 5849 5849 5849 5849 5849 5849 5849 5849 5849 5849 5850 5850 5851 5851 5852 5852
5843 5843 5844 5844 5844 5844 5844 5844 5844 5845 5844 5845 5845 5845 5845 5845 5845 5846 5846 5846 5846 5846 5846 5846 5846 5846 5846 5846 5846 5846 5846 5846 5847 5847 5847 5847 5847 5847 5847 5847 5847 5847 5847 5847 5847 5848 5848 5849 5849
5841 5842 5842 5843 5843 5843 5843 5843 5843 5843 5844 5844 5844 5844 5844 5844 5844 5844 5845 5845 5845 5844 5844 5844 5844 5844 5844 5844 5844 5844 5844 5844 5845 5845 5845 5845 5844 5844 5844 5844 5844 5844 5844 5844 5845 5845 5846 5846 5847
5840 5841 5841 5841 5842 5842 5842 5842 5842 5842 5843 5843 5843 5843 5843 5843 5843 5843 5843 5843 5843 5843 5842 5842 5842 5842 5842 5842 5842 5842 5842 5842 5842 5842 5842 5842 5842 5842 5841 5841 5841 5841 5842 5842 5842 5842 5843 5843 5844
5838 5839 5839 5840 5840 5841 5841 5841 5841 5841 5842 5842 5842 5842 5842 5842 5842 5842 5842 5842 5841 5841 5841 5840 5840 5840 5840 5840 5840 5840 5840 5840 5840 5839 5839 5839 5839 5839 5838 5838 5838 5839 5839 5839 5839 5839 5839 5840 5841
5837 5837 5838 5838 5839 5839 5840 5840 5840 5840 5841 5841 5841 5840 5840 5840 5840 5840 5840 5840 5839 5839 5839 5838 5838 5838 5838 5838 5838 5837 5837 5837 5837 5837 5836 5836 5836 5835 5835 5835 5835 5835 5835 5835 5836 5836 5836 5836 5837
5835 5836 5837 5837 5837 5838 5838 5839 5839 5839 5839 5839 5839 5839 5839 5839 5839 5838 5838 5838 5838 5837 5837 5836 5836 5836 5835 5835 5835 5835 5834 5834 5834 5833 5833 5832 5832 5832 5832 5832 5832 5832 5832 5832 5832 5832 5832 5833 5833
5834 5834 5835 5835 5835 5836 5838 5838 5838 5837 5837 5838 5838 5838 5837 5837 5837 5837 5836 5836 5835 5835 5834 5834 5833 5833 5833 5832 5832 5832 5831 5831 5830 5830 5829 5829 5829 5828 5828 5828 5828 5828 5828 5828 5828 5828 5829 5829 5829
5832 5832 5832 5833 5834 5834 5835 5835 5836 5835 5836 5836 5836 5836 5836 5835 5835 5835 5834 5834 5833 5833 5832 5831 5831 5830 5830 5829 5829 5829 5828 5828 5827 5827 5826 5826 5825 5825 5824 5824 5824 5824 5824 5824 5825 5825 5825 5825 5825
5830 5830 5830 5831 5831 5832 5832 5833 5833 5833 5833 5833 5834 5834 5833 5833 5833 5833 5832 5832 5831 5830 5830 5829 5828 5828 5827 5827 5826 5826 5825 5825 5824 5823 5823 5822 5822 5821 5821 5820 5820 5820 5820 5820 5820 5821 5821 5821 5821
5828 5828 5828 5829 5829 5829 5830 5830 5830 5831 5831 5831 5831 5831 5831 5831 5831 5830 5830 5829 5829 5828 5827 5827 5826 5825 5824 5824 5823 5823 5822 5822 5821 5820 5819 5818 5818 5817 5816 5816 5816 5815 5815 5816 5816 5816 5816 5817 5817
5826 5826 5826 5826 5826 5826 5827 5827 5827 5828 5828 5828 5828 5829 5829 5829 5828 5828 5827 5827 5826 5826 5825 5824 5824 5823 5822 5821 5820 5820 5819 5819 5818 5817 5816 5815 5814 5813 5812 5811 5811 5811 5811 5811 5811 5811 5812 5812 5812
5823 5823 5824 5824 5824 5824 5824 5825 5825 5825 5825 5826 5826 5826 5826 5826 5826 5825 5825 5824 5824 5823 5823 5822 5821 5820 5819 5818 5817 5817 5816 5815 5815 5814 5813 5811 5810 5809 5808 5807 5806 5806 5806 5806 5806 5806 5807 5807 5808
5820 5821 5821 5821 5821 5821 5822 5822 5822 5822 5822 5823 5823 5823 5823 5823 5823 5823 5822 5822 5821 5820 5820 5819 5818 5817 5816 5815 5814 5814 5813 5812 5811 5810 5809 5808 5807 5805 5804 5803 5802 5801 5801 5801 5801 5802 5802 5802 5803
5818 5817 5818 5818 5818 5818 5818 5818 5820 5819 5819 5820 5820 5820 5820 5820 5820 5820 5820 5819 5818 5818 5817 5816 5815 5814 5813 5812 5811 5810 5809 5809 5808 5806 5806 5804 5803 5802 5800 5799 5797 5796 5796 5796 5797 5797 5797 5798 5798
5814 5815 5815 5815 5815 5816 5816 5815 5817 5817 5817 5817 5817 5817 5816 5817 5817 5816 5816 5816 5815 5815 5814 5813 5812 5811 5810 5809 5808 5807 5806 5805 5804 5803 5802 5801 5799 5798 5796 5795 5794 5793 5792 5792 5792 5792 5793 5793 5793
5812 5812 5812 5812 5812 5813 5813 5812 5814 5813 5813 5813 5813 5813 5813 5813 5813 5813 5812 5812 5812 5811 5810 5810 5809 5808 5807 5806 5805 5804 5803 5802 5801 5800 5799 5797 5796 5794 5793 5791 5790 5789 5788 5788 5788 5788 5788 5788 5788
5809 5809 5810 5810 5810 5810 5809 5809 5811 5810 5810 5810 5810 5810 5810 5810 5810 5810 5809 5808 5808 5808 5807 5806 5805 5804 5803 5802 5802 5801 5800 5799 5798 5797 5795 5794 5792 5790 5789 5787 5786 5786 5785 5784 5784 5783 5783 5783 5783
5805 5805 5807 5806 5806 5806 5806 5807 5808 5807 5807 5807 5807 5807 5806 5806 5806 5806 5805 5805 5804 5804 5803 5802 5802 5801 5800 5799 5798 5797 5796 5795 5794 5793 5791 5790 5788 5787 5785 5783 5782 5781 5781 5780 5780 5779 5778 5778 5778
5802 5802 5802 5802 5802 5802 5803 5804 5804 5803 5803 5803 5803 5803 5803 5803 5802 5802 5801 5801 5801 5800 5799 5798 5797 5796 5795 5795 5794 5793 5792 5791 5790 5789 5787 5785 5784 5782 5781 5779 5778 5777 5776 5776 5775 5775 5774 5773 5773
5799 5799 5798 5798 5798 5799 5799 5803 5801 5800 5800 5800 5800 5800 5799 5799 5799 5798 5797 5797 5796 5796 5795 5794 5793 5792 5791 5790 5789 5788 5787 5786 5785 5784 5782 5780 5779 5778 5776 5775 5773 5772 5771 5771 5770 5769 5769 5768 5768
5794 5794 5795 5795 5795 5794 5795 5799 5797 5796 5796 5796 5796 5795 5795 5795 5794 5794 5793 5793 5792 5791 5790 5789 5788 5788 5787 5786 5785 5784 5782 5781 5780 5778 5777 5775 5774 5772 5771 5770 5768 5767 5766 5765 5764 5764 5763 5763 5762